User: anonymous   Login
Location: Unspecified
(0.0000°N, 0.0000°E)
Time: 06:08:33
(UTC+00:00)
Language:

DNEPR OBJECT AF - Orbit

View from above orbital plane
View from above orbital plane
View from above satellite
View from above satellite

Ground track
Ground track

The orbit data is extracted from the following two-line orbital elements,

1 39445U 13066AF  17296.54424782 +.00000420 +00000-0 +58701-4 0  9993
2 39445 097.6186 333.6344 0057877 205.6364 154.1978 14.81423521209995
Epoch (UTC): 23 October 2017 13:03:43
Eccentricity: 0.0057877
inclination: 97.6186°
perigee height: 584 km
apogee height: 665 km
right ascension of ascending node: 333.6344°
argument of perigee: 205.6364°
revolutions per day: 14.81423521
mean anomaly at epoch: 154.1978°
orbit number at epoch: 20999

The dashed part of the orbit path shows where the satellite is in the earth's shadow,  

DLR